This is the latest recevied weather packets stored in our database for station/object N2WH. If no packets are shown the sender has not sent any weather packets the latest 10 day(s).
| Time | Temp. | Humidity | Pressure | Rain* | Wind** | Luminosity | Snow |
|---|---|---|---|---|---|---|---|
| 1777981888 | 15° C | 80% | 1012.1 hPa | 0 mm | - | 59 W/m² | - |
| 1777981584 | 14.44° C | 81% | 1011.8 hPa | 0 mm | - | 50 W/m² | - |
| 1777981281 | 13.89° C | 82% | 1011.9 hPa | 0 mm | - | 54 W/m² | - |
| 1777980977 | 13.89° C | 82% | 1011.7 hPa | 0 mm | - | 50 W/m² | - |
| 1777980674 | 13.89° C | 82% | 1011.9 hPa | 0 mm | - | 42 W/m² | - |
| 1777980370 | 13.89° C | 81% | 1012 hPa | 0 mm | - | 48 W/m² | - |
| 1777980068 | 13.89° C | 80% | 1011.8 hPa | 0 mm | - | 35 W/m² | - |
| 1777979762 | 14.44° C | 80% | 1011.5 hPa | 0 mm | - | 34 W/m² | - |
| 1777979458 | 14.44° C | 81% | 1011.6 hPa | 0 mm | - | 40 W/m² | - |
| 1777979155 | 13.89° C | 81% | 1011.3 hPa | 0 mm | - | 42 W/m² | - |
| 1777978852 | 13.89° C | 81% | 1011.5 hPa | 0 mm | - | 41 W/m² | - |
| 1777978548 | 13.89° C | 82% | 1011.4 hPa | 0 mm | - | 40 W/m² | - |
| 1777978244 | 13.89° C | 79% | 1011.7 hPa | 0 mm | - | 26 W/m² | - |
| 1777977941 | 13.89° C | 79% | 1011.7 hPa | 0 mm | - | 11 W/m² | - |
| 1777977639 | 13.89° C | 78% | 1012 hPa | 0 mm | - | 7 W/m² | - |
| 1777977335 | 13.89° C | 78% | 1012 hPa | 0 mm | - | 12 W/m² | - |
| 1777977033 | 14.44° C | 75% | 1012.1 hPa | 0 mm | - | 17 W/m² | - |
| 1777976730 | 13.89° C | 73% | 1012.1 hPa | 0 mm | - | 21 W/m² | - |
| 1777976428 | 13.89° C | 74% | 1011.7 hPa | 0 mm | - | 22 W/m² | - |
| 1777976126 | 13.89° C | 74% | 1011.7 hPa | 0 mm | - | 20 W/m² | - |
| 1777975822 | 13.33° C | 76% | 1011.5 hPa | 0 mm | - | 16 W/m² | - |
| 1777975519 | 12.78° C | 77% | 1011.4 hPa | 0 mm | - | 7 W/m² | - |
| 1777975216 | 13.33° C | 75% | 1011.4 hPa | 0 mm | - | 3 W/m² | - |
| 1777974912 | 13.33° C | 76% | 1011.4 hPa | 0 mm | - | 1 W/m² | - |
| 1777974608 | 12.78° C | 77% | 1011.2 hPa | 0 mm | - | 0 W/m² | - |
* Rain latest hour (hover to see other rain measurements)
** Current wind speed in m/s (hover to see current wind gust speed)